Location: *
(48.8489°N, 2.3218°E)
Time: 09:04:15
(UTC+00:00)

EXPRESS MD2 - Pass Details

Date: 23 August 2019
Orbit: 265 x 4064 km, 49.9° (Epoch: 18 September)

Event Time Altitude Azimuth Distance (km) Brightness Sun altitude
Rises 20:57:18 0° 289° (WNW) 3,297 8.4 -18.4°
Reaches altitude 10° 21:00:38 10° 278° (W) 1,864 6.8 -18.8°
Enters shadow 21:03:51 26° 222° (SW) 831 4.2 -19.2°
